Regional Weather Roundup
Issued by NWS Kansas City/Pleasant Hill, MO

Home | Current Version | Previous Version | Text Only | Print | Product List | Glossary On
Versions: 1 2 3 4 5 6 7 8 9 10 11 12 13 14 15 16 17 18 19 20 21 22 23 24 25 26 27 28 29 30 31 32 33 34 35 36 37 38 39 40 41 42 43 44 45 46 47 48 49 50
000
ASUS43 KEAX 241610
RWREAX

WEATHER ROUNDUP FOR EASTERN KANSAS AND NORTHWEST MISSOURI
NATIONAL WEATHER SERVICE KANSAS CITY/PLEASANT HILL MO
1000 AM CST FRI NOV 24 2017

KSZ040-057-103>105-MOZ028-029-037-043-241700-
...KANSAS CITY METROPOLITAN AREA...

CITY           SKY/WX    TMP DP  RH WIND       PRES   REMARKS
K.C. INTL      MOSUNNY   61  37  41 SW23G30   29.65F
K.C. DOWNTOWN  SUNNY     63  36  36 SW20G26   29.67F
LEES SUMMIT    SUNNY     60  36  40 SW20      29.69F
OLATHE - IXD   SUNNY     60  37  42 S18       29.69F
OLATHE - OJC   SUNNY     57  36  45 S12G23    29.69F
LAWRENCE       SUNNY     61  37  41 S14       29.68F

$$

MOZ001>008-011>017-020>025-030>033-038>040-044>046-053-054-241700-
...NORTHERN AND CENTRAL MISSOURI...

CITY           SKY/WX    TMP DP  RH WIND       PRES   REMARKS
ST. JOSEPH     SUNNY     60  37  42 S17G25    29.62F
MOSBY          SUNNY     63  34  34 S10       29.66F
WARRENSBURG    SUNNY     57  34  41 S13       29.73F
WHITEMAN AFB   SUNNY     60  36  41 SW18      29.69F
CLINTON        SUNNY     57  36  44 MISG      29.78F
SEDALIA        SUNNY     60  37  42 S22       29.75F
WARSAW         NOT AVBL
CHILLICOTHE      N/A     57  37  47 S16       29.64F
KIRKSVILLE     SUNNY     58  37  45 S16       29.65F

$$

MOZ041-047>049-056>058-063>065-088>090-097-241700-
...EASTERN AND SOUTHERN MISSOURI...

CITY           SKY/WX    TMP DP  RH WIND       PRES   REMARKS
ST. LOUIS INTL MOSUNNY   56  34  43 S8        29.82F
SPIRIT OF STL  SUNNY     58  37  45 CALM      29.80F
COLUMBIA       SUNNY     58  36  43 S13       29.77F
JEFFERSON CITY SUNNY     57  33  40 S8        29.79F
ROLLA          SUNNY     59  33  37 S15       29.83F
OSAGE BEACH    SUNNY     63  35  35 S13G21    29.81F
SPRINGFIELD    SUNNY     57  36  45 S14       29.84F
BRANSON        MOSUNNY   63  32  31 SW10      29.89F
JOPLIN         SUNNY     63  34  33 S18G29    29.83F
WEST PLAINS    SUNNY     58  32  37 SW8       29.91S

$$

IAZ060-094-KSZ022-034>040-054-083-096-NEZ052-066-093-241700-
...KANSAS...SOUTHEAST NEBRASKA AND IOWA...

CITY           SKY/WX    TMP DP  RH WIND       PRES   REMARKS
TOPEKA         SUNNY     61  38  42 SW13G18   29.66F
MANHATTAN      SUNNY     61  38  42 SW17G24   29.66F
EMPORIA        CLOUDY    59  37  44 S15       29.71F
CHANUTE        SUNNY     57  35  43 S16       29.78F
WICHITA        MOSUNNY   55  39  54 S10       29.74F
OMAHA          MOSUNNY   59  40  49 S9        29.50F
LINCOLN        SUNNY     62  38  40 SW9       29.56S
FALLS CITY     SUNNY     62  39  42 SW17      29.57F
LAMONI         SUNNY     59  38  45 SW23      29.56F
DES MOINES     MOSUNNY   60  38  43 SW16      29.49F

$$




USA.gov is the U.S. government's official web portal to all federal, state and local government web resources and services.